Satellite: RS-38 Catalog number: 35869 Epoch time: 10014.71157963 Element set: 103 Inclination: 098.7808 deg RA of node: 069.4634 deg Eccentricity: 0.0005466 Arg of perigee: 088.8099 deg Mean anomaly: 271.3651 deg Mean motion: 14.21975384 rev/day Decay rate: 1.76e-06 rev/day^2 Epoch rev: 1691 Checksum: 336
/EX